Flag for Canada Weather past 2 weeks in Moose Jaw, Saskatchewan, Canada

Now
36 °F

Clear.


Feels Like: 28 °F
Forecast: 30 / 53 °F
Wind: 10 mph from West

Location: Regina Weather Station

Current Time: Oct 24, 2014 at 10:19:34 PM

Latest Report: Oct 24, 2014 at 10:00 PM


Visibility: 15 mi

Pressure: 30.04 "Hg

Humidity: 87%

Dew point: 32 °F

Location of Moose JawLocation

Historic Weather in Moose Jaw — Graph

°F

Moose Jaw temperature yesterday

Maximum temperature yesterday: 61 °F (at 3:00 PM)
Minimum temperature yesterday: 32 °F (at 5:00 AM)
Average temperature yesterday: 44 °F

Past Weeks' High & Low Weather Summary

 TemperatureHumidityPressure
High75 °F (Oct 20, 3:00 PM)100% (Oct 12, 4:00 AM)30.32 "Hg (Oct 12, 4:00 AM)
Low30 °F (Oct 17, 3:00 AM)30% (Oct 10, 4:00 PM)29.53 "Hg (Oct 16, 12:00 AM)
Average47 °F73%29.87 "Hg
* Reported Oct 9 9:00 PM — Oct 24 9:00 PM, Moose Jaw, Weather by CustomWeather, © 2014

Note: Actual official high and low records may vary slightly from our data, if they occured in-between our weather recording intervals... More about our weather records

Advertising

Moose Jaw weather history for previous 24 hours

 ConditionsComfort  
Time TempWeatherWind HumidityBarometerVisibility
9:00 PM
Oct 24
36 °FPassing clouds.10 mph87%30.03 "Hg15 mi
8:00 PM39 °FPassing clouds.10 mph75%30.01 "Hg15 mi
7:00 PM43 °FPassing clouds.10 mph66%29.99 "Hg15 mi
6:00 PM48 °FPassing clouds.16 mph58%29.96 "Hg15 mi
5:00 PM54 °FPassing clouds.18 mph44%29.93 "Hg15 mi
4:00 PM55 °FPassing clouds.22 mph41%29.90 "Hg15 mi
3:00 PM55 °FPassing clouds.25 mph41%29.88 "Hg15 mi
2:00 PM55 °FPassing clouds.23 mph41%29.88 "Hg15 mi
1:00 PM54 °FScattered clouds.25 mph47%29.87 "Hg15 mi
12:00 PM55 °FPartly sunny.17 mph47%29.86 "Hg15 mi
11:00 AM54 °FPartly sunny.21 mph51%29.84 "Hg15 mi
10:00 AM50 °FScattered clouds.20 mph62%29.80 "Hg15 mi
9:00 AM50 °FPartly sunny.22 mph58%29.78 "Hg15 mi
8:00 AM46 °FPartly sunny.15 mph71%29.74 "Hg15 mi
7:00 AM46 °FPassing clouds.14 mph76%29.73 "Hg15 mi
6:00 AM46 °FPassing clouds.12 mph82%29.71 "Hg15 mi
5:00 AM48 °FPassing clouds.8 mph76%29.70 "Hg15 mi
4:00 AM50 °FPassing clouds.7 mph76%29.70 "Hg15 mi
3:00 AM48 °FPassing clouds.10 mph82%29.70 "Hg15 mi
2:00 AM45 °FPassing clouds.7 mph87%29.72 "Hg15 mi
1:00 AM41 °FPassing clouds.9 mph87%29.72 "Hg15 mi
12:00 AM46 °FPassing clouds.8 mph82%29.71 "Hg15 mi
11:00 PM
Oct 23
46 °FPassing clouds.6 mph76%29.72 "Hg15 mi
10:00 PM46 °FPassing clouds.5 mph76%29.73 "Hg15 mi
Weather by CustomWeather, © 2014

See weather overviewHow to use our weather pages